sat.trackr.live / text

‹ back to catalog

STARLINK-11734 [DTC]

NORAD 64329 · 2025-124N

PAYLOAD ACTIVE UNKNOWN

§ Identity

Operator
Country
US
Launch date
2025-06-10
Launch site
AFETR
Launch vehicle
Mass (kg)
RCS (m²)

Purposes: comms

External: N2YO · Heavens-Above · Gunter

§ Orbital elements

Epoch: 2026-05-24T16:45:28.743840Z

Period
91.67 min
Inclination
42.9993°
Eccentricity
0.0002482
Mean motion
15.70858700 rev/d
Perigee alt
354.8 km
Apogee alt
358.1 km
Semi-major
6,734.6 km
B*
1.3756e-3
RAAN
290.6018°
Arg perigee
298.6889°
Mean anomaly
61.3729°
Rev number
5,479

§ Raw data

STARLINK-11734 [DTC]1 64329U 25124N   26144.69824935  .00180082  00000+0  13756-2 0  99932 64329  42.9993 290.6018 0002482 298.6889  61.3729 15.70858700 54798

JSON: /api/v1/satellites/64329 · /tle

For live sub-satellite position, see the globe view (requires WebGL).

§ Visibility from observer

Set your observer location to see the next 7 days of passes ≥ 10°. The values pass through the URL so the page stays shareable.

No JS? Fill the form by hand. The geolocation button needs JavaScript.